Location: *
(47.6569°N, 7.4256°E)
Time: 18:18:41
(UTC+00:00)

Cosmos 2297 - Pass Details

Date: 14 December 2019
Orbit: 837 x 858 km, 71.0° (Epoch: 27 January)

Event Time Altitude Azimuth Distance (km) Brightness Sun altitude
Rises 17:14:27 0° 330° (NNW) 3,428 7.0 -15.3°
Reaches altitude 10° 17:16:57 10° 327° (NNW) 2,485 6.3 -15.7°
Maximum altitude 17:22:33 60° 248° (WSW) 966 4.3 -16.6°
Drops below altitude 10° 17:28:04 10° 170° (S) 2,454 6.2 -17.5°
Sets 17:30:31 0° 167° (SSE) 3,382 6.9 -17.8°
